Location: Ahausen
(50.4985°N, 8.2722°E)
Time: 02:22:41
(UTC+00:00)

Envisat - Visible Passes

Search period start: 21 February 2024 00:00
Search period end: 02 March 2024 00:00
Orbit: 762 x 764 km, 98.3° (Epoch: 20 February)

Date Brightness Start Highest point End Pass type
(mag) Time Alt. Az. Time Alt. Az. Time Alt. Az.
21 Feb 4.7 02:41:26 10° NNE 02:44:05 30° NE 02:44:05 30° NE visible
21 Feb 4.2 04:20:56 10° N 04:24:16 25° NW 04:24:16 25° NW visible
22 Feb 5.4 02:04:34 10° NE 02:06:30 19° NE 02:06:30 19° NE visible
22 Feb 3.8 03:43:11 10° N 03:46:40 38° NNW 03:46:40 38° NNW visible
23 Feb 6.0 01:28:39 10° ENE 01:28:54 11° ENE 01:28:54 11° ENE visible
23 Feb 4.0 03:05:46 10° NNE 03:09:05 42° NNE 03:09:05 42° NNE visible
23 Feb 4.5 04:45:52 10° NNW 04:49:15 18° NW 04:49:15 18° NW visible
24 Feb 4.7 02:28:38 10° NNE 02:31:28 29° NE 02:31:28 29° NE visible
24 Feb 3.9 04:07:51 10° N 04:11:39 31° NW 04:11:39 31° NW visible
25 Feb 5.5 01:51:59 10° NE 01:53:53 17° ENE 01:53:53 17° ENE visible
25 Feb 3.5 03:30:14 10° N 03:34:03 47° NNW 03:34:03 47° NNW visible
25 Feb 4.8 05:11:16 10° NNW 05:13:16 12° NW 05:14:13 12° WNW visible
26 Feb 3.9 02:52:53 10° NNE 02:56:28 44° NE 02:56:28 44° NE visible
26 Feb 4.2 04:32:40 10° N 04:36:30 22° WNW 04:36:38 22° WNW visible
27 Feb 4.8 02:15:53 10° NNE 02:18:52 27° ENE 02:18:52 27° ENE visible
27 Feb 3.6 03:54:49 10° N 03:59:02 39° NW 03:59:02 39° NW visible
28 Feb 5.6 01:39:31 10° NE 01:41:16 15° ENE 01:41:16 15° ENE visible
28 Feb 3.3 03:17:17 10° NNE 03:21:27 59° N 03:21:27 59° N visible
28 Feb 4.6 04:57:46 10° NNW 05:00:35 15° NW 05:01:37 14° WNW visible
29 Feb 4.0 02:40:03 10° NNE 02:43:51 43° NE 02:43:51 43° NE visible
29 Feb 4.0 04:19:32 10° N 04:23:45 27° WNW 04:24:01 27° WNW visible
01 Mar 5.0 02:03:12 10° NE 02:06:15 24° ENE 02:06:15 24° ENE visible
01 Mar 3.2 03:41:48 10° N 03:46:26 49° WNW 03:46:26 49° WNW visible
01 Mar 5.0 05:24:16 10° NW 05:24:34 10° NW 05:24:51 10° NW visible
